Flag for U.S.A. Weather past 2 weeks in Myrtle Beach, South Carolina, U.S.A.

Now
86 °F

Scattered clouds.


Feels Like: 93 °F
Forecast: 74 / 88 °F
Wind: 14 mph from South

Location: Myrtle Beach Air Force Base

Current Time: Aug 2, 2015 at 5:22:08 PM

Latest Report: Aug 2, 2015 at 4:45 PM


Visibility: 10 mi

Pressure: 29.95 "Hg

Humidity: 66%

Dew point: 73 °F

Location of Myrtle BeachLocation

Historic Weather in Myrtle Beach — Graph

°F

Myrtle Beach temperature yesterday

Maximum temperature yesterday: 88 °F (at 12:45 PM)
Minimum temperature yesterday: 75 °F (at 3:15 AM)
Average temperature yesterday: 80 °F

Past Weeks' High & Low Weather Summary

 TemperatureHumidityPressure
High99 °F (Jul 21, 2:45 PM)89% (Jul 19, 4:55 AM)30.04 "Hg (Jul 19, 4:55 AM)
Low72 °F (Jul 25, 6:45 AM)43% (Jul 25, 12:45 PM)29.73 "Hg (Jul 21, 5:45 PM)
Average81 °F73%29.93 "Hg
* Reported Jul 18 3:45 PM — Aug 2 3:45 PM, Myrtle Beach, Weather by CustomWeather, © 2015

Note: Actual official high and low records may vary slightly from our data, if they occured in-between our weather recording intervals... More about our weather records

Advertising

Myrtle Beach weather history for previous 24 hours

 ConditionsComfort  
Time TempWeatherWind HumidityBarometerVisibility
3:45 PM
Sun, Aug 2
88 °FBroken clouds.14 mph62%29.95 "Hg10 mi
2:45 PM90 °FPassing clouds.15 mph52%29.95 "Hg10 mi
1:45 PM88 °FPassing clouds.15 mph59%29.96 "Hg10 mi
12:50 PM88 °FScattered clouds.14 mph62%29.96 "Hg10 mi
11:47 AM88 °FScattered clouds.10 mph62%29.97 "Hg10 mi
10:50 AM88 °FPassing clouds.8 mph59%29.97 "Hg10 mi
9:50 AM84 °FSunny.No wind66%29.97 "Hg10 mi
8:46 AM81 °FScattered clouds.No wind74%29.97 "Hg10 mi
7:45 AM77 °FScattered clouds.7 mph83%29.95 "Hg10 mi
6:45 AM75 °FPassing clouds.No wind89%29.95 "Hg10 mi
5:55 AM75 °FOvercast.No wind89%29.93 "Hg10 mi
5:35 AM75 °FPassing clouds.No wind83%29.93 "Hg10 mi
5:15 AM75 °FPassing clouds.No wind83%29.93 "Hg10 mi
4:55 AM75 °FOvercast.No wind83%29.93 "Hg10 mi
4:35 AM75 °FPassing clouds.No wind83%29.93 "Hg10 mi
4:15 AM75 °FPassing clouds.No wind83%29.93 "Hg10 mi
3:55 AM75 °FClear.No wind83%29.92 "Hg10 mi
3:35 AM75 °FClear.No wind83%29.92 "Hg10 mi
3:15 AM75 °FPassing clouds.6 mph83%29.92 "Hg10 mi
2:55 AM75 °FPassing clouds.No wind83%29.92 "Hg10 mi
2:35 AM75 °FPassing clouds.No wind83%29.94 "Hg10 mi
2:15 AM77 °FClear.No wind79%29.94 "Hg10 mi
1:55 AM75 °FClear.No wind83%29.95 "Hg10 mi
1:35 AM75 °FClear.No wind83%29.94 "Hg10 mi
1:15 AM77 °FClear.No wind79%29.95 "Hg10 mi
12:55 AM77 °FClear.5 mph79%29.95 "Hg10 mi
12:35 AM79 °FClear.3 mph79%29.95 "Hg10 mi
12:15 AM79 °FClear.5 mph79%29.95 "Hg10 mi
11:55 PM
Sat, Aug 1
79 °FClear.5 mph79%29.95 "Hg10 mi
11:35 PM77 °FClear.5 mph83%29.95 "Hg10 mi
11:15 PM79 °FClear.3 mph79%29.95 "Hg10 mi
10:55 PM81 °FClear.3 mph74%29.95 "Hg10 mi
9:45 PM81 °FClear.6 mph74%29.93 "Hg10 mi
8:45 PM82 °FSunny.8 mph70%29.91 "Hg10 mi
7:45 PM82 °FSunny.14 mph70%29.90 "Hg10 mi
6:45 PM84 °FSunny.14 mph66%29.90 "Hg10 mi
5:45 PM86 °FPassing clouds.12 mph66%29.91 "Hg10 mi
Weather by CustomWeather, © 2015

See weather overviewHow to use our weather pages